Lid_Strength_Index
1 -0 -1 -1 -1 -1 -1 -1 -1 -2 -2 -1 -1 -1 -1 -1 -1 -1 -1 -1 -1 -1 -1 -1 -1 -2 -2 -1 -1 -1 -1 -0 0 -1 -2 -2 -1 -2 -1 -1 -1 -1 -1
1 -0 -0 -1 -1 -1 -1 -1 -1 -2 -2 -1 -1 -1 -1 -1 -1 -1 -1 -1 -2 -1 -1 -1 -1 -1 -1 -1 -1 -1 -0 0 1 1 -0 -2 -2 -2 -2 -2 -2 -1 -1
0 -0 -0 -1 -1 -1 -1 -1 -1 -1 -1 -1 -1 -1 -1 -1 -1 -1 -1 -1 -1 -1 -1 -1 -1 -1 -1 -1 -0 1 0 1 1 -0 -0 2 -1 -2 -2 -2 -2 -1 -1
-0 -0 -0 -0 -1 -1 -1 -1 -1 -1 -2 -1 -1 -1 -1 -1 -1 -1 -1 -1 -1 -1 -1 -1 -1 -1 -0 0 1 1 1 1 -0 -1 1 0 -1 -1 -1 -2 -1 -1 -1
0 -0 -0 -0 -1 -1 -1 -1 -2 -2 -1 -1 -1 -1 -1 -1 -1 -1 -1 -1 -1 -1 -1 -1 -1 -0 1 2 2 3 3 3 1 1 1 1 -0 -1 -2 -1 -1 -1 -2
1 -0 -0 -0 -1 -1 -1 -1 -2 -2 -2 -2 -1 -1 -1 -1 -2 -2 -1 -2 -1 -1 -1 -1 -1 -1 0 1 2 2 2 1 2 3 1 1 0 -1 -2 -1 -1 -1 -1
2 1 -0 -0 -1 -1 -1 -1 -1 -1 -2 -2 -2 -2 -2 -2 -2 -1 -1 -1 -1 -1 -1 -1 -1 -1 0 1 2 2 2 1 5 2 2 2 1 -1 -1 -1 -1 -1 -1
2 0 -0 1 0 -0 -1 -1 -1 -1 -1 -1 -1 -2 -2 -2 -2 -2 -1 -1 -1 -1 -1 -2 -1 -0 1 2 3 3 3 1 4 3 2 2 -2 -1 -1 -1 -1 -1 -1
2 0 0 -0 0 1 0 -0 -0 -1 -1 -1 -1 -1 -1 -2 -2 -2 -2 -2 -1 -1 -2 -2 -1 0 1 2 3 4 3 2 7 4 3 3 -1 -1 -1 -1 -1 -1 -1
2 1 0 1 1 0 0 1 1 0 -0 -0 -0 0 0 -1 -1 -1 -1 -2 -2 -2 -2 -1 -0 0 1 3 5 5 4 4 8 6 5 3 0 -0 -0 -0 -1 -1 -1
3 2 1 0 0 0 1 1 2 1 1 1 1 2 2 2 1 1 1 -1 -2 -2 -2 -1 0 1 2 4 6 6 5 10 9 7 6 2 2 1 1 0 0 -0 -0
3 3 2 2 1 0 -0 1 1 1 1 1 1 2 1 2 2 2 3 -1 -2 -2 -2 -1 0 1 4 9 10 7 10 10 10 8 6 3 2 2 2 2 1 -0 -0
4 2 2 2 2 1 0 1 0 -0 1 1 -0 1 1 1 2 4 5 2 2 1 2 2 3 6 7 9 11 10 11 11 11 9 6 4 2 2 2 1 0 1 1
7 3 2 1 2 2 2 2 1 1 1 2 0 0 1 1 2 5 5 3 3 4 5 6 7 8 9 10 10 11 11 11 11 10 7 4 3 3 2 1 1 1 0
8 7 3 2 1 2 2 3 3 1 2 2 2 1 0 1 2 5 5 4 4 5 5 6 7 9 10 10 11 11 11 12 11 9 9 4 2 2 2 1 1 1 1
8 7 6 2 1 2 2 3 3 3 3 3 3 2 2 2 2 4 6 5 4 4 6 7 8 10 10 11 11 11 11 11 11 10 9 6 3 2 3 2 1 1 1
9 8 8 6 2 3 3 3 3 3 3 3 2 2 2 2 4 5 6 5 4 5 6 8 9 10 11 11 12 11 11 11 12 11 9 8 6 4 2 2 2 2 0
10 9 9 8 5 3 3 3 2 3 3 3 3 3 2 3 4 6 7 6 5 6 7 9 10 11 11 12 13 12 12 12 12 11 11 9 8 8 6 4 3 1 2
11 10 10 9 9 5 3 3 3 3 3 3 3 3 3 3 5 5 7 7 7 7 9 9 11 11 12 13 12 13 13 12 12 11 11 11 12 10 10 7 6 5 4
11 11 10 10 9 8 6 5 4 4 4 4 3 3 2 3 4 5 7 7 7 8 10 11 11 12 12 13 12 12 13 12 13 13 12 12 13 12 11 11 11 9 5
12 12 11 11 10 9 8 7 6 6 5 5 3 2 2 3 3 6 7 7 8 9 10 11 12 12 13 13 14 14 14 13 13 13 13 13 13 13 13 13 12 11 9
13 12 12 12 11 10 9 8 8 8 8 7 5 4 3 3 4 5 7 8 9 11 11 11 12 13 13 13 14 15 16 15 14 13 13 13 14 13 13 13 13 12 10
13 13 12 12 12 12 11 10 9 9 9 9 9 7 6 5 4 5 6 8 9 9 11 11 12 12 13 14 13 14 17 17 16 14 14 14 14 15 14 14 13 12 10
14 13 12 12 12 12 12 12 13 12 12 11 11 10 10 8 7 6 6 7 9 10 11 12 12 12 13 15 15 13 14 14 17 17 15 15 15 15 15 15 14 13 11
13 14 14 12 12 12 12 12 13 13 13 13 12 12 12 11 9 8 8 8 9 10 11 11 12 13 14 14 14 15 15 15 15 17 18 17 16 15 15 15 15 14 12
13 14 14 14 14 12 12 12 13 14 14 14 13 13 13 12 12 12 11 10 10 10 11 11 11 12 12 14 14 15 15 15 16 16 17 18 18 17 16 15 15 14 14